McCall, ID

9:27 AM MST on November 18, 2017 (GMT -0700)
McCall

Weather History for KMYL - September, 2014

Change the Weather History Date:

Saturday, September 13, 2014

  Actual Average Record
Temperature  
Mean Temperature 55 °F 52 °F  
Max Temperature 77 °F 68 °F 85 °F (1981)
Min Temperature 32 °F 35 °F 21 °F (1984)
Degree Days  
Heating Degree Days 10 14  
Month to date heating degree days 142 148  
Since 1 July heating degree days 258 476  
Cooling Degree Days 0 0  
Month to date cooling degree days 0 0  
Year to date cooling degree days 185 25  
Growing Degree Days 4 (Base 50)    
Moisture  
Dew Point 26 °F    
Average Humidity 43    
Maximum Humidity 72    
Minimum Humidity 14    
Precipitation  
Precipitation 0.00 in 0.02 in 1.02 in (1939)
Month to date precipitation 0.00 0.35  
Year to date precipitation 16.62 13.39  
Sea Level Pressure  
Sea Level Pressure 30.01 in    
Wind  
Wind Speed 3 mph (NNW)    
Max Wind Speed 14 mph    
Max Gust Speed 18 mph    
Visibility 10 miles    
Events      
T = Trace of Precipitation, MM = Missing Value Source: NWS Daily Summary

Daily Weather History Graph

Daily Weather History Graph

Search for Another Location

Airport or City:

Trip Planner

Search our weather history database for the weather conditions in past years. The results will help you decide how hot, cold, wet, or windy it might be!

Date:

Astronomy

Sep. 13, 2014 Rise Set
Actual Time 7:20 AM MDT 7:58 PM MDT
Civil Twilight 6:51 AM MDT 8:28 PM MDT
Nautical Twilight 6:16 AM MDT 9:03 PM MDT
Astronomical Twilight 5:39 AM MDT 9:39 PM MDT
Moon 10:53 PM MDT (9/13) 12:45 PM MDT (9/13)
Length of Visible Light 13h 36m
Length of Day
12h 37m
Waning Gibbous, 73% of the Moon is Illuminated
Sep 13
Waning Gibbous
Sep 15
Last Quarter
Sep 24
New
Oct 1
First Quarter
Oct 8
Full

Hourly Weather History & Observations

Time (MDT) Temp. Windchill Dew Point Humidity Pressure Visibility Wind Dir Wind Speed Gust Speed Precip Events Conditions
12:51 AM 39.9 °F 37.8 °F 25.0 °F 55% 30.06 in 10.0 mi NE 3.5 mph - N/A   Clear
1:51 AM 37.9 °F - 26.1 °F 62% 30.06 in 10.0 mi Calm Calm - N/A   Clear
2:51 AM 37.0 °F 34.5 °F 25.0 °F 62% 30.06 in 10.0 mi NE 3.5 mph - N/A   Clear
3:51 AM 36.0 °F - 24.1 °F 62% 30.06 in 10.0 mi Calm Calm - N/A   Clear
4:51 AM 34.0 °F - 23.0 °F 64% 30.05 in 10.0 mi Calm Calm - N/A   Clear
5:51 AM 33.1 °F 30.0 °F 23.0 °F 66% 30.06 in 10.0 mi NNE 3.5 mph - N/A   Clear
6:51 AM 33.1 °F - 23.0 °F 66% 30.07 in 10.0 mi Calm Calm - N/A   Clear
7:51 AM 32.0 °F 28.7 °F 24.1 °F 73% 30.09 in 10.0 mi NE 3.5 mph - N/A   Clear
8:51 AM 39.9 °F - 26.1 °F 58% 30.09 in 10.0 mi Calm Calm - N/A   Clear
9:51 AM 48.0 °F - 30.9 °F 52% 30.07 in 10.0 mi Calm Calm - N/A   Clear
10:51 AM 54.0 °F - 30.0 °F 40% 30.05 in 10.0 mi South 4.6 mph - N/A   Clear
11:51 AM 60.1 °F - 30.0 °F 32% 30.02 in 10.0 mi South 4.6 mph - N/A   Clear
12:51 PM 66.0 °F - 27.0 °F 23% 30.01 in 10.0 mi Calm Calm - N/A   Clear
1:51 PM 70.0 °F - 26.1 °F 19% 29.99 in 10.0 mi Calm Calm - N/A   Clear
2:51 PM 72.0 °F - 26.1 °F 18% 29.97 in 10.0 mi Variable 5.8 mph - N/A   Clear
3:51 PM 73.9 °F - 25.0 °F 16% 29.95 in 10.0 mi WSW 6.9 mph - N/A   Clear
4:51 PM 77.0 °F - 24.1 °F 14% 29.93 in 9.0 mi WSW 10.4 mph - N/A   Clear
5:51 PM 75.0 °F - 23.0 °F 14% 29.93 in 10.0 mi WSW 5.8 mph - N/A   Clear
6:51 PM 73.9 °F - 21.9 °F 14% 29.92 in 10.0 mi West 8.1 mph - N/A   Clear
7:51 PM 68.0 °F - 21.9 °F 17% 29.95 in 10.0 mi WNW 5.8 mph - N/A   Clear
8:51 PM 59.0 °F - 25.0 °F 27% 29.95 in 10.0 mi NE 3.5 mph - N/A   Clear
9:51 PM 57.0 °F - 33.1 °F 40% 29.95 in 10.0 mi North 3.5 mph - N/A   Clear
10:51 PM 53.1 °F - 33.1 °F 47% 29.95 in 10.0 mi NNW 4.6 mph - N/A   Clear
11:51 PM 46.9 °F - 30.0 °F 52% 29.95 in 10.0 mi NE 3.5 mph - N/A   Clear